Hourly Data Report for September 23, 2017

All times are specified in Local Standard Time (LST). Add 1 hour to adjust for Daylight Saving Time where and when it is observed.

ARCTIC BAY CS
NUNAVUT

72°59'34.000" N
85°00'44.000" W
10.00 m
2400404
71592
XAT

Download Data

Hourly Data (September 2017)
Hourly Data Report for September 23, 2017
Temp Definition
°C
Dew Point Temp Definition
°C
Rel Hum Definition
%
Wind Dir Definition
10's deg

Wind Spd Definition
km/h
Visibility Definition
km
Stn Press Definition
kPa
Hmdx Definition


Wind Chill Definition


Weather Definition


TIME
00:00 -1.3 -4.0 82 31 25   101.47   -8 LegendNANA
01:00 -1.5 -3.6 85 29 25   101.44   -8 LegendNANA
02:00 -2.1 -3.0 93 31 18   101.42   -8 LegendNANA
03:00 -2.0 -2.7 95 31 19   101.40   -8 LegendNANA
04:00 -2.1 -3.5 90 31 13   101.35   -7 LegendNANA
05:00 -2.5 -4.2 88 11 3   101.34   -4 LegendNANA
06:00 -1.8 -4.1 84 34 20   101.34   -8 LegendNANA
07:00 -1.4 -4.0 83 33 26   101.30   -8 LegendNANA
08:00 -1.7 -4.2 83 35 25   101.28   -8 LegendNANA
09:00 -1.7 -4.0 84 34 27   101.28   -8 LegendNANA
10:00 -1.4 -4.3 80 35 18   101.30   -7 LegendNANA
11:00 -1.3 -4.1 81 34 14   101.31   -6 LegendNANA
12:00 -1.1 -4.0 81 32 22   101.31   -7 LegendNANA
13:00 -1.1 -3.9 81 33 12   101.32   -5 LegendNANA
14:00 -1.2 -4.3 80 32 10   101.35   -5 LegendNANA
15:00 -1.1 -4.1 80 31 8   101.36   -4 LegendNANA
16:00 -1.9 -4.9 80 3 3   101.38   -3 LegendNANA
17:00 -1.2 -4.1 81 35 11   101.38   -5 LegendNANA
18:00 -1.5 -4.3 81 9 4   101.39   -3 LegendNANA
19:00 -1.1 -4.2 80 6 2   101.38   -2 LegendNANA
20:00 -1.4 -4.0 83 3 6   101.38   -4 LegendNANA
21:00 -1.6 -3.9 84 34 6   101.37   -4 LegendNANA
22:00 -2.8 -4.8 87 34 8   101.34   -6 LegendNANA
23:00 -2.9 -4.7 87 35 4   101.34   -4 LegendNANA

Notes on Data Quality.

Legend

  • E = Estimated
  • M = Missing
  • NA = Not Available
  • ‡ = Partner data that is not subject to review by the National Climate Archives
Date modified: